C/2019 T2 ( Lemmon )

Japanese version
Home page
Updated on January 4, 2024

---------------------------------------------------------------------

* Profile

Discovery Date October 9, 2019
Magnitude 20.6 mag
Discoverer Mt. Lemmon Survey

* Pictures

* Orbital Elements

Epoch 2023 Feb. 25.0 TT = JDT 2460000.5
T 2021 Apr. 22.50839 TT                                 Rudenko
q   2.6463555            (2000.0)            P               Q
z  +0.0002634      Peri.  239.43048     +0.33334736     -0.86119399
 +/-0.0000004      Node   155.64862     -0.13720065     +0.35833238
e   0.9993029      Incl.  111.47802     -0.93276767     -0.36047581
>From 779 observations 2019 Aug. 26-2022 Dec. 23, mean residual 0".7.

* Finding Charts

* Magnitudes Graph

        m1 = 9.0 + 5 log d + 10.0 log r(t + 80)

---------------------------------------------------------------------

The orbital elements are published on M.P.E.C. 2022-Y232.
The charts are made with StellaNavigator Ver.10 (AstroArts).
The magnitudes graphs are made with Comet for Windows.

---------------------------------------------------------------------

Copyright(C) Seiichi Yoshida (comet@aerith.net). All rights reserved.